Regional Weather Roundup
Issued by NWS

Home | Current Version | Previous Version | Text Only | Print | Product List | Glossary Off
Versions: 1 2 3 4 5 6 7 8 9 10 11 12 13 14 15 16 17 18 19 20 21 22 23 24 25 26 27 28 29 30 31 32 33 34 35 36 37 38 39 40 41 42 43 44 45 46 47 48 49 50

000
ASUS43 KFSD 280902
RWRSD

WEATHER ROUNDUP FOR SOUTH DAKOTA
NATIONAL WEATHER SERVICE SIOUX FALLS SD
300 AM CST SUN DEC 28 2014

NOTE: "FAIR" INDICATES FEW OR NO CLOUDS BELOW 12,000 FEET WITH NO
SIGNIFICANT WEATHER AND/OR OBSTRUCTIONS TO VISIBILITY.


SDZ001>005-009-010-012>017-281000-
NORTHWEST AND NORTH CENTRAL SOUTH DAKOTA

CITY           SKY/WX    TMP DP  RH WIND       PRES   REMARKS
BUFFALO          N/A     17  10  74 W7        29.86S WCI   8
FAITH            N/A     17  11  77 S9        29.98R WCI   6
MOBRIDGE       CLEAR     11   9  92 CALM      30.00S
$$

SDZ012>016-024>037-041>051-057-063-072>074-281000-
SOUTHWEST AND SOUTH CENTRAL SOUTH DAKOTA

CITY           SKY/WX    TMP DP  RH WIND       PRES   REMARKS
RAPID CTY ARPT CLEAR     11   3  70 NW7       29.96S WCI   0
PIERRE         CLEAR     13  10  88 SW8       30.04S WCI   2
CUSTER         CLEAR      8   0  69 W6        29.87S WCI  -2
ELLSWORTH AFB  PTCLDY    15   4  64 W6        29.95S WCI   6
PHILIP         CLOUDY    14   9  80 W6        30.03S WCI   5
PINE RIDGE     PTCLDY     9   2  73 CALM      30.00F
WINNER         FAIR      16   7  67 SW7       30.06R WCI   6
$$

SDZ004>011-016>023-039-040-281000-
NORTHEAST SOUTH DAKOTA

CITY           SKY/WX    TMP DP  RH WIND       PRES   REMARKS
ABERDEEN       CLOUDY    10   6  84 CALM      30.08R
WATERTOWN      PTCLDY     7   3  84 CALM      30.04R
SISSETON         N/A     17  14  88 NW9       30.06R WCI   6
$$

SDZ017-020-022-023-036>040-048>070-281000-
SOUTHEAST SOUTH DAKOTA

CITY           SKY/WX    TMP DP  RH WIND       PRES   REMARKS
SIOUX FALLS    PTCLDY     2  -1  88 CALM      30.08S
HURON          CLEAR      1  -2  87 E5        30.08R WCI  -9
MITCHELL       PTCLDY     4   2  91 SW5       30.09R WCI  -5
YANKTON        PTCLDY     3   1  92 CALM      30.11S
$$

ABBREVIATIONS USED IN REMARKS
   TC - TEMPERATURE IN CELSIUS
  WCI - WIND CHILL INDEX
   HX - HEAT INDEX
  VSB - VISIBILITY




USA.gov is the U.S. government's official web portal to all federal, state and local government web resources and services.